Location: Bédeille
(43.0872°N, 1.1041°E)
Time: 12:38:18
(UTC+00:00)

MINOTAUR 4 R/B - Pass Details

Date: 03 February 2023
Orbit: 448 x 453 km, 98.0° (Epoch: 19 March)

Event Time Altitude Azimuth Distance (km) Brightness Sun altitude
Exits shadow 17:18:52 - 56° (NE) 2,241 6.8 -2.3°
Enters shadow 18:36:22 -33° 9° (N) 7,719 10.1 -16.0°
Maximum altitude 18:54:45 80° 285° (WNW) 460 3.9 -19.3°
